SL-16 DEB, 22343

Orbit data source: Space-Track

SL-16 DEB, 22343 is space debris in LEO originally from a launch on Fri, 25 Dec 1992 UTC launched from the Tyuratam Missile And Space Complex (TTMTR). Debris objects in space refer to the collection of defunct objects orbiting the Earth. Examples of debris include non-operational satellites, rocket bodies, and fragments generated from explosions, collisions, or faulty payload assembly.

Loading next visibility...
Identifier
22343, 1992-093AG
Orbit
LEO
Country
Flag of CISCIS
Related business
Manufacturer
Unknown
Mission
Spacecraft
Bus & Motor
Unknown
Mass
Unknown
Launch date (UTC)
1992-12-25 (33 years ago)
Launch vehicle
Unknown
Launch site
Tyuratam Missile And Space Complex (TTMTR)
Object type
Payload
Rocket body
Debris
Shape & HBR
Unknown
Radar Cross Section
Medium (>0.1 m² and <1 m²)

Expand to show TLE details & history
Last TLE update: 15 hours ago

TLE from 15 hours ago
0 SL-16 DEB
1 22343U 92093AG  25259.17111024  .00000944  00000-0  52253-3 0  9994
2 22343  70.9590 330.3617 0095052 239.0203 147.1887 14.11629375677532
Epoch: 2025-09-16T04:06Z
TLE epoch observation values (Epoch: 2025-09-16T04:06:23.924Z)
Latitude
25.25972°
Longitude
-77.28061°
Altitude
914.312 km
Speed
7.368 km/s
True Right ascension
22h 38m 44s
True Declination
25° 07' 48"
Sunlit
Object was in full shadow at epoch
Visualization orbit readout
Latitude
Unknown
Longitude
Unknown
Altitude
Unknown
Speed
Unknown
Apparent Right ascension
Unknown
Apparent Declination
Unknown
Sunlit
N/A
Visualization observer readout
Local Sidereal Time
11:33:59
Azimuth
Unknown
Elevation
Unknown
Doppler factor
Unknown
Orbital elements
Apogee altitude
920.455 km
Perigee altitude
783.012 km
Semi-major axis
7,229.87 km
Eccentricity
0.00951
Inclination
70.959°
RAAN
330.3617°
Arg. of periapsis
239.0203°
True anomaly
147.77307°
Mean anomaly
147.1887°
Eccentric anomaly
147.48147°
Mean motion
3.53059 °/min
Orbital period
101.97 mins
BSTAR
0.00052253
Loading maneuver chart data...
Computing Atmospheric mass density...
Loading historical data...
Loading historical data...
Loading historical data...
Loading historical data...
Loading historical data...
Loading historical data...
Loading historical data...

Documentation

Showing up to 5 results
|